Location: Crescent
(42.8242°N, 73.7329°W)
Time: 18:22:42
(UTC+00:00)

Explorer 7 - All Passes

Search period start: 16 February 2026 00:00
Search period end: 26 February 2026 00:00
Orbit: 431 x 545 km, 50.2° (Epoch: 16 February)

Date Brightness Start Highest point End Pass type
(mag) Time Alt. Az. Time Alt. Az. Time Alt. Az.
16 Feb - 00:08:13 10° NW 00:11:29 27° N 00:14:52 10° ENE visible
16 Feb - 01:46:38 10° NW 01:50:28 58° NNE 01:54:27 10° ESE visible
16 Feb - 03:25:21 10° WNW 03:28:47 28° SW 03:32:18 10° SSE night (unlit)
16 Feb - 20:24:30 10° SW 20:28:01 69° SE 20:31:41 10° ENE daylight
16 Feb - 22:03:22 10° W 22:06:41 32° NNW 22:10:08 10° NE daylight
16 Feb - 23:42:37 10° NW 23:45:51 27° N 23:49:12 10° ENE visible
17 Feb - 01:21:03 10° NW 01:24:50 56° NNE 01:28:46 10° ESE visible
17 Feb - 02:59:42 10° WNW 03:03:09 29° SW 03:06:42 10° SSE night (unlit)
17 Feb - 19:58:54 10° SW 20:02:23 66° SE 20:06:01 10° ENE daylight
17 Feb - 21:37:43 10° W 21:41:02 33° NNW 21:44:28 10° NE daylight
17 Feb - 23:16:59 10° NW 23:20:10 26° N 23:23:29 10° ENE visible
18 Feb - 00:55:25 10° NW 00:59:10 55° NNE 01:03:04 10° ESE visible
18 Feb - 02:34:02 10° WNW 02:37:31 31° SW 02:41:04 10° SSE night (unlit)
18 Feb - 19:33:15 10° SW 19:36:43 62° SE 19:40:18 10° ENE daylight
18 Feb - 21:12:02 10° W 21:15:20 33° NNW 21:18:45 10° NE daylight
18 Feb - 22:51:19 10° NW 22:54:28 26° N 22:57:44 10° ENE visible
19 Feb - 00:29:45 10° NW 00:33:29 53° NNE 00:37:20 10° ESE visible
19 Feb - 02:08:20 10° WNW 02:11:49 32° SW 02:15:24 10° SSE visible
19 Feb - 19:07:35 10° SW 19:11:01 59° SE 19:14:34 10° ENE daylight
19 Feb - 20:46:20 10° W 20:49:37 34° NNW 20:53:01 10° NE daylight
19 Feb - 22:25:37 10° NW 22:28:44 25° N 22:31:58 10° ENE daylight
20 Feb - 00:04:03 10° NW 00:07:44 51° NNE 00:11:34 10° E visible
20 Feb - 01:42:36 10° WNW 01:46:06 33° SW 01:49:41 10° SSE visible
20 Feb - 18:41:53 10° SW 18:45:17 56° SE 18:48:49 10° ENE daylight
20 Feb - 20:20:34 10° W 20:23:51 34° NNW 20:27:15 10° NE daylight
20 Feb - 21:59:52 10° NW 22:02:58 25° N 22:06:09 10° ENE daylight
20 Feb - 23:38:19 10° NW 23:41:58 49° NNE 23:45:45 10° E visible
21 Feb - 01:16:50 10° WNW 01:20:21 34° SW 01:23:57 10° SSE visible
21 Feb - 18:16:09 10° SW 18:19:31 53° SE 18:23:00 10° ENE daylight
21 Feb - 19:54:47 10° W 19:58:03 35° NNW 20:01:26 10° NE daylight
21 Feb - 21:34:06 10° NW 21:37:10 25° N 21:40:19 10° ENE daylight
21 Feb - 23:12:33 10° NW 23:16:10 47° NNE 23:19:54 10° E visible
22 Feb - 00:51:03 10° WNW 00:54:33 36° SW 00:58:10 10° SSE visible
22 Feb - 17:50:22 10° SW 17:53:43 50° SE 17:57:09 10° ENE daylight
22 Feb - 19:28:58 10° W 19:32:13 35° NNW 19:35:36 10° NE daylight
22 Feb - 21:08:17 10° NW 21:11:19 25° N 21:14:27 10° ENE daylight
22 Feb - 22:46:45 10° NW 22:50:20 46° NNE 22:54:02 10° E daylight
23 Feb - 00:25:13 10° WNW 00:28:44 37° SW 00:32:21 10° SSE visible
23 Feb - 17:24:34 10° SW 17:27:53 48° SE 17:31:18 10° ENE daylight
23 Feb - 19:03:06 10° W 19:06:22 36° NNW 19:09:43 10° NE daylight
23 Feb - 20:42:26 10° NW 20:45:26 24° N 20:48:31 10° ENE daylight
23 Feb - 22:20:56 10° NW 22:24:27 44° NNE 22:28:07 10° E daylight
23 Feb - 23:59:21 10° WNW 00:02:52 39° SW 00:06:30 10° SSE visible
24 Feb - 16:58:43 10° SW 17:02:01 45° SE 17:05:23 10° ENE daylight
24 Feb - 18:37:12 10° W 18:40:29 37° NNW 18:43:49 10° NE daylight
24 Feb - 20:16:34 10° NW 20:19:32 24° N 20:22:35 10° ENE daylight
24 Feb - 21:55:03 10° NW 21:58:33 43° NNE 22:02:10 10° E daylight
24 Feb - 23:33:27 10° WNW 23:36:58 40° SW 23:40:36 10° SSE visible
25 Feb - 16:32:51 10° SW 16:36:07 43° SE 16:39:26 10° ENE daylight
25 Feb - 18:11:17 10° W 18:14:33 38° NNW 18:17:53 10° NE daylight
25 Feb - 19:50:38 10° NW 19:53:35 24° N 19:56:37 10° ENE daylight
25 Feb - 21:29:09 10° NW 21:32:37 41° NNE 21:36:11 10° E daylight
25 Feb - 23:07:32 10° WNW 23:11:03 42° SW 23:14:41 10° SSE visible
